TimePDT,TemperatureF,Dew PointF,Humidity,Sea Level PressureIn,VisibilityMPH,Wind Direction,Wind SpeedMPH,Gust SpeedMPH,PrecipitationIn,Events,Conditions,WindDirDegrees,DateUTC
12:56 AM,52.0,34.9,52,30.10,10.0,NNE,8.1,-,N/A,,Clear,20,2013-04-30 07:56:00
1:56 AM,52.0,34.9,52,30.12,10.0,NNE,8.1,-,N/A,,Clear,20,2013-04-30 08:56:00
2:56 AM,50.9,34.9,54,30.12,10.0,North,8.1,-,N/A,,Clear,360,2013-04-30 09:56:00
3:56 AM,47.8,32.9,56,30.13,10.0,North,8.1,-,N/A,,Clear,10,2013-04-30 10:56:00
4:56 AM,45.0,32.0,60,30.14,10.0,NW,8.1,-,N/A,,Clear,320,2013-04-30 11:56:00
5:56 AM,45.0,31.1,58,30.15,10.0,NNW,4.6,-,N/A,,Clear,330,2013-04-30 12:56:00
6:56 AM,46.9,27.1,46,30.16,10.0,NNE,8.1,-,N/A,,Clear,20,2013-04-30 13:56:00
7:56 AM,48.9,24.1,38,30.18,10.0,North,9.2,-,N/A,,Clear,360,2013-04-30 14:56:00
8:56 AM,52.0,21.0,30,30.19,10.0,North,8.1,-,N/A,,Clear,350,2013-04-30 15:56:00
9:56 AM,54.9,19.0,25,30.19,10.0,North,9.2,-,N/A,,Clear,360,2013-04-30 16:56:00
10:56 AM,59.0,18.1,20,30.20,10.0,Variable,4.6,-,N/A,,Clear,0,2013-04-30 17:56:00
11:56 AM,57.9,32.0,37,30.20,10.0,NW,17.3,-,N/A,,Clear,320,2013-04-30 18:56:00
12:56 PM,55.9,36.0,47,30.21,10.0,NW,16.1,-,N/A,,Clear,310,2013-04-30 19:56:00
1:56 PM,59.9,36.0,41,30.20,10.0,NW,13.8,-,N/A,,Clear,310,2013-04-30 20:56:00
2:56 PM,61.9,37.9,41,30.19,10.0,NW,11.5,-,N/A,,Clear,320,2013-04-30 21:56:00
3:56 PM,61.9,38.8,43,30.19,10.0,NNW,10.4,-,N/A,,Clear,330,2013-04-30 22:56:00
4:56 PM,61.0,38.8,44,30.18,10.0,NNW,10.4,-,N/A,,Clear,330,2013-04-30 23:56:00
5:56 PM,59.9,38.8,46,30.18,10.0,NNW,9.2,-,N/A,,Clear,330,2013-05-01 00:56:00
6:56 PM,59.0,38.8,47,30.19,10.0,NNW,8.1,-,N/A,,Clear,330,2013-05-01 01:56:00
7:56 PM,54.9,38.8,55,30.20,10.0,Variable,4.6,-,N/A,,Clear,0,2013-05-01 02:56:00
8:56 PM,52.0,36.0,54,30.22,10.0,NNW,5.8,-,N/A,,Clear,340,2013-05-01 03:56:00
10:56 PM,56.8,17.1,21,30.25,10.0,NNE,9.2,-,N/A,,Clear,20,2013-05-01 05:56:00
11:56 PM,55.9,20.1,25,30.25,10.0,NNE,8.1,-,N/A,,Clear,20,2013-05-01 06:56:00